Skip Page Navigation
NASA JPL Caltech
NASA Logo - Jet Propulsion Laboratory + View the NASA Portal
+ Center for Near-Earth Object Studies
JPL Home Earth Solar System Stars & Galaxies Technology
JPL Solar System Dynamics
BODIES ORBITS EPHEMERIDES TOOLS PHYSICAL DATA DISCOVERY FAQ SITE MAP
JPL Small-Body Database Browser
Search: [ help ]  
175347 (2005 NV122)
Classification: Main-belt Asteroid          SPK-ID: 2175347
Ephemeris | Orbit Diagram | Orbital Elements | Mission Design | Physical Parameters | Discovery Circumstances | Close-Approach Data ]

[ hide orbit diagram ]

For accurate long-term ephemerides, please instead use our Horizons system.This orbit viewer was implemented using two-body methods, and hence should not be used for determining accurate long-term trajectories (over several years or decades) or planetary encounter circumstances.


Orbital Elements at Epoch 2459200.5 (2020-Dec-17.0) TDB
Reference: JPL 19 (heliocentric ecliptic J2000)
 Element Value Uncertainty (1-sigma)   Units 
e .05441787964965449 6.288e-08  
a 3.164891814528247 3.8934e-08 au
q 2.992665112661073 1.837e-07 au
i 8.472781239208931 7.8481e-06 deg
node 314.7277877570563 3.7276e-05 deg
peri 149.5673101563945 7.6017e-05 deg
M 113.5901733973276 6.7743e-05 deg
tp 2458551.604156510914
(2019-Mar-09.10415651)
0.00038359 TDB
period 2056.537961597714
5.63
3.7949e-05
1.039e-07
d
yr
n .1750514732635024 3.2302e-09 deg/d
Q 3.337118516395422 4.1053e-08 au
  Orbit Determination Parameters
   # obs. used (total)      300  
   data-arc span      6261 days (17.14 yr)  
   first obs. used      2003-03-07  
   last obs. used      2020-04-27  
   planetary ephem.      DE441  
   SB-pert. ephem.      SB441-N16  
   condition code      0  
   norm. resid. RMS      .57753  
   source      ORB  
   producer      Otto Matic  
   solution date      2021-Apr-13 21:05:00  

Additional Information
 Earth MOID = 2.01278 au 
 Jupiter MOID = 1.74682 au 
 T_jup = 3.185 
[ show covariance matrix ]

Ephemeris | Orbit Diagram | Orbital Elements | Mission Design | Physical Parameters | Discovery Circumstances | Close-Approach Data ]

Physical Parameter Table
Parameter Symbol Value Units Sigma Reference Notes
absolute magnitude H 15.30   n/a E2021B55  
diameter diameter 5.402 km 1.241 urn:nasa:pds:neowise_diameters_albedos::2.0[mainbelt] (http://adsabs.harvard.edu/abs/2011ApJ...741...68M)  
rotation period rot_per 7.250 h n/a LCDB (Rev. 2020-October); Warner et al., 2009 Result based on less than full coverage, so that the period may be wrong by 30 percent or so.
Published Reference List:
[Chang, C.K.; Ip, W.-H.; Lin, H.-W.; Cheng, Y.C.; et al. (2015) Astrophys. J. Supp. Ser. 219, A27.]
[Waszczak, A.; Chang, C.-K.; Ofeck, E.O.; Laher, F.; et al. (2015) Astron. J. 150, A75.]
geometric albedo albedo 0.055   0.020 urn:nasa:pds:neowise_diameters_albedos::2.0[mainbelt] (http://adsabs.harvard.edu/abs/2011ApJ...741...68M)  

175347 (2005 NV122)          Discovered 2005-Jul-04 by NEAT at Palomar
Reference: 20080122/Numbers.arcLast Updated: 2008-01-28

[ hide close-approach data ]
Close-Approach Data   ...sorted by Date/Time (TDB)
Date/Time (TDB) Time Uncertainty
(days_HH:MM)
Body Nominal Distance (au) Minimum Distance (au) Maximum Distance (au) V-relative (km/s) V-infinity (km/s) JD (TDB) Time Uncertainty (minutes) Semi-major axis (km) Semi-minor axis (km) range-LOV angle (deg) N-sigma BP Orbit Ref. Reference Modified
1916-Mar-14 15:50 00:06 Jupiter 1.8867022935506 1.8867004008803 1.88670418623869 3.35949575748978 3.22309245567008 2420937.159770202 6.16729132190227 346.57025270674 37.4776842156046 75.7248053632276 2038508.07055537 T 19 CATAB v2.0f-lin.ifort 2021-Apr-13 21:05:01 2021-Apr-13 21:05
1926-Nov-25 20:15 00:05 Jupiter 1.77774615838918 1.77774532813477 1.77774698864743 3.62226511352779 3.48824988771765 2424845.343431993 5.09242949389225 242.365933591405 27.9803134115707 83.1940968687418 1997350.36131902 T 19 CATAB v2.0f-lin.ifort 2021-Apr-13 21:05:01 2021-Apr-13 21:05
1937-Aug-30 10:31 00:04 Jupiter 1.86351801852524 1.86351686144803 1.86351917560839 3.76243512552295 3.63962368638935 2428775.937965310 4.31998944184143 203.568527903548 23.8847119188554 75.0864097055494 2236012.61623501 T 19 CATAB v2.0f-lin.ifort 2021-Apr-13 21:05:01 2021-Apr-13 21:05
2034-Jul-12 05:16 00:01 Jupiter 1.84055687502883 1.84055622210681 1.84055752795084 3.31320882577646 3.1712701932609 2464155.719150392 1.37008858720094 149.411408536743 26.5357186507488 89.0891406543986 2203016.07112277 T 19 CATAB v2.0f-lin.ifort 2021-Apr-13 21:05:01 2021-Apr-13 21:05
2045-Mar-30 11:52 00:02 Jupiter 1.78204321273436 1.78204238384075 1.78204404162827 3.66347089750347 3.53134528473242 2468069.994128912 1.92755450852354 148.66079677837 31.8446683767876 83.3967396734779 1759749.49270538 T 19 CATAB v2.0f-lin.ifort 2021-Apr-13 21:05:01 2021-Apr-13 21:05
2056-Jan-04 07:54 00:03 Jupiter 1.91904420575156 1.91904276979332 1.91904564171274 3.81612544468028 3.69865635740417 2472001.829364230 2.58541947764262 152.042940889223 26.4173617542146 65.3738170725697 2324866.34492688 T 19 CATAB v2.0f-lin.ifort 2021-Apr-13 21:05:01 2021-Apr-13 21:05
2142-Mar-18 04:18 00:08 Jupiter 1.94977171810964 1.9497696366021 1.94977379962726 3.27920532862236 3.14393779150321 2503485.678925570 8.32344742430189 277.709440786545 41.4216675960375 74.555997177325 2098208.35526538 T 19 CATAB v2.0f-lin.ifort 2021-Apr-13 21:05:01 2021-Apr-13 21:05
2152-Nov-12 23:10 00:09 Jupiter 1.80598524307539 1.80598390457375 1.80598658165021 3.32095020753862 3.1765851461859 2507378.465536118 8.62914914572737 707.480786915351 29.698974113128 83.8696624826801 1953388.75257732 T 19 CATAB v2.0f-lin.ifort 2021-Apr-13 21:05:01 2021-Apr-13 21:05
2163-Aug-08 13:06 00:09 Jupiter 1.80051285532446 1.80051094542337 1.80051476523415 3.72084204719438 3.59218561442254 2511299.046031530 8.7708418690465 248.625934167259 36.0864469533199 71.9369579546352 1357186.71487627 T 19 CATAB v2.0f-lin.ifort 2021-Apr-13 21:05:01 2021-Apr-13 21:05
2174-May-15 11:54 00:09 Jupiter 1.97894048085741 1.97893625226511 1.97894470948671 3.89112443063171 3.77952549487192 2515231.995530811 9.43957884583842 485.159910198775 23.6233756374302 64.9866898080207 2782897.17264213 T 19 CATAB v2.0f-lin.ifort 2021-Apr-13 21:05:01 2021-Apr-13 21:05
Ephemeris | Orbit Diagram | Orbital Elements | Mission Design | Physical Parameters | Discovery Circumstances | Close-Approach Data ]
ABOUT SSD CREDITS/AWARDS PRIVACY/COPYRIGHT GLOSSARY LINKS
FirstGov 2021-Jun-19 22:42 UT
(server date/time)  
NASA Home Page
Site Manager:   Ryan S. Park
Webmaster  Alan B. Chamberlin